[[{"header":{"parameterUnit":"m.s-1","parameterCategory":1,"la1":30.2991,"la2":30.254,"lo1":-89.0895,"lo2":-89.0444,"dy":0.0017,"dx":0.0017,"nx":28,"ny":28,"refTime":"2023-10-28T21:00:00:Z","depth":0,"parameterNumber":2,"parameterNumberName":"U-component_of_WINDS"},"data":[0,0,0,0,0,0,0,0,0,0,0,0,0,0,0,0,0,0,0,0,0,0,0,0,0,0,0,0,0,0,0,0,0,0,0,0,0,0,0,0,0,0,0,0,0,0,0,0,0,0,0,0,0,0,0,0,0,0,-2.171,-2.1712,0,-2.186,-2.1862,-2.1864,-2.1905,-2.1904,-2.1903,-2.1903,-2.2061,-2.2066,-2.2071,0,0,0,0,0,0,0,0,0,0,0,0,0,-2.1468,-2.1472,-2.171,-2.1712,-2.1714,-2.186,-2.1862,-2.1864,-2.1905,-2.1904,-2.1903,-2.1902,-2.2059,-2.2065,-2.2071,0,0,0,0,0,0,0,0,0,0,0,0,0,-2.1591,-2.1474,-2.171,-2.1752,-2.1757,-2.1859,-2.1862,-2.1865,-2.1905,-2.1904,-2.1903,-2.1902,-2.2057,-2.2064,-2.2072,-2.2144,0,0,-2.2095,-2.2098,0,0,0,0,0,0,0,0,-2.1584,-2.16,-2.1744,-2.1749,-2.1755,-2.1862,-2.1835,-2.1958,-2.1906,-2.1849,-2.1903,-2.1901,-2.1996,-2.2009,-2.204,-2.2152,-2.2158,-2.2095,-2.21,-2.2103,-2.2105,0,0,0,0,0,0,0,-2.1576,-2.1594,-2.177,-2.1746,-2.1753,-2.1766,-2.1782,-2.1858,-2.1928,-2.1854,-2.1857,-2.1874,-2.1999,-2.2032,-2.2044,-2.2161,-2.2095,-2.2102,-2.2107,-2.211,-2.2346,-2.2348,0,0,0,0,0,0,-2.1559,-2.1586,-2.1765,-2.1774,-2.1665,-2.1772,-2.179,-2.1829,-2.1928,-2.1941,-2.1875,-2.1876,-2.202,-2.2035,-2.2049,-2.2144,-2.2103,-2.211,-2.2115,-2.2345,-2.2347,-2.2349,0,0,0,0,0,0,-2.1553,-2.1574,-2.1759,-2.1681,-2.1706,-2.1777,-2.1822,-2.1833,-2.1866,-2.1944,-2.1957,-2.1896,-2.202,-2.2039,-2.2121,-2.215,-2.2114,-2.212,-2.2342,-2.2345,-2.2348,-2.2331,0,0,0,0,0,0,-2.1546,-2.1572,-2.1598,-2.1681,-2.171,-2.1825,-2.1823,-2.1837,-2.1879,-2.1881,-2.1966,-2.1979,-2.202,-2.211,-2.2129,-2.216,-2.2126,-2.234,-2.2344,-2.2347,-2.2329,-2.2333,-2.2336,0,0,0,0,0,-2.1538,-2.1587,-2.1599,-2.162,-2.1743,-2.1827,-2.1843,-2.1887,-2.188,-2.1909,-2.196,-2.1977,-2.2144,-2.2118,-2.214,-2.2173,-2.2339,-2.2343,-2.2347,-2.2328,-2.2332,-2.2336,0,0,0,0,0,0,-2.1505,-2.1598,-2.1612,-2.169,-2.175,-2.1833,-2.187,-2.189,-2.1954,-2.1953,-2.2008,-2.2027,-2.2107,-2.2149,-2.2118,-2.2252,-2.2242,-2.2251,-2.222,-2.2225,-2.2228,-2.2216,-2.2133,0,0,0,0,0,-2.1507,-2.1564,-2.1644,-2.1705,-2.1735,-2.1797,-2.1835,-2.1865,-2.193,-2.1956,-2.2012,-2.2076,-2.2144,-2.2187,-2.2253,-2.2337,-2.2358,-2.2371,-2.2374,-2.2376,-2.2383,-2.2435,-2.2443,-2.2362,-2.2362,-2.2362,0,0,-2.1511,-2.1569,-2.1602,-2.17,-2.175,-2.1812,-2.1818,-2.1882,-2.193,-2.1966,-2.2047,-2.2092,-2.2168,-2.2252,-2.2292,-2.2289,-2.2411,-2.2381,-2.2383,-2.2388,-2.244,-2.2447,-2.2454,-2.2364,-2.2364,-2.2363,0,0,-2.155,-2.1599,-2.1656,-2.1707,-2.1783,-2.1826,-2.184,-2.1922,-2.1952,-2.2035,-2.2065,-2.2125,-2.2238,-2.2292,-2.2335,-2.2402,-2.2421,-2.2422,-2.2438,-2.2488,-2.2495,-2.2501,-2.2527,-2.2536,-2.2429,-2.2429,-2.2429,0,-2.1546,-2.1637,-2.1684,-2.1748,-2.1792,-2.1829,-2.189,-2.1938,-2.2032,-2.2063,-2.2059,-2.2206,-2.226,-2.2359,-2.2376,-2.2408,-2.2429,-2.2411,-2.249,-2.2496,-2.2502,-2.2528,-2.2538,-2.2428,-2.2428,-2.2428,-2.2428,0,-2.163,-2.1694,-2.1732,-2.1822,-2.1871,-2.1933,-2.1993,-2.2037,-2.2065,-2.2109,-2.2196,-2.2262,-2.2344,-2.2371,-2.2397,-2.2476,-2.2473,-2.2478,-2.247,-2.2509,-2.2534,-2.2545,-2.2428,-2.2428,-2.2428,-2.2428,0,0,-2.1648,-2.1767,-2.178,-2.1824,-2.1913,-2.1965,-2.2032,-2.2112,-2.215,-2.2216,-2.2275,-2.2374,-2.2382,-2.243,-2.2465,-2.2508,-2.2561,-2.251,-2.2513,-2.2519,-2.2657,-2.2651,-2.2662,-2.2576,-2.2578,-2.2579,-2.2651,0,-2.17,-2.1816,-2.1864,-2.196,-2.2022,-2.2061,-2.212,-2.2184,-2.2228,-2.229,-2.2341,-2.2411,-2.2414,-2.2444,-2.249,-2.2545,-2.259,-2.2541,-2.2634,-2.2637,-2.2613,-2.2675,-2.2668,-2.2732,-2.2661,-2.2663,-2.2664,0,-2.1773,-2.184,-2.1942,-2.2029,-2.2057,-2.2108,-2.2188,-2.2246,-2.2321,-2.2351,-2.2408,-2.2441,-2.2517,-2.2505,-2.2612,-2.2578,-2.262,-2.2654,-2.2658,-2.2668,-2.2652,-2.2688,-2.2753,-2.2763,-2.2679,-2.2678,-2.2677,0,-2.1778,-2.1894,-2.1971,-2.2007,-2.2109,-2.2146,-2.219,-2.2264,-2.2311,-2.2382,-2.2414,-2.2494,-2.2538,-2.2601,-2.2656,-2.2642,-2.276,-2.2751,-2.2789,-2.2788,-2.2811,-2.2809,-2.2885,-2.2838,-2.2837,-2.2837,-2.2837,0,-2.183,-2.1892,-2.1976,-2.2023,-2.2095,-2.2152,-2.2223,-2.2271,-2.2337,-2.2398,-2.2438,-2.2494,-2.2564,-2.2631,-2.2676,-2.276,-2.2779,-2.2808,-2.2819,-2.2805,-2.2801,-2.2832,-2.2829,-2.284,-2.2839,-2.2839,-2.2838,0,-2.1847,-2.1905,-2.1992,-2.2083,-2.2108,-2.2158,-2.2237,-2.2287,-2.2336,-2.2413,-2.2434,-2.2511,-2.2593,-2.2655,-2.2761,-2.2791,-2.2882,-2.2893,-2.2855,-2.2861,-2.2896,-2.2892,-2.2995,-2.3013,-2.2952,-2.2953,-2.2953,0,-2.1875,-2.1924,-2.2021,-2.2064,-2.2109,-2.2177,-2.2226,-2.2286,-2.2335,-2.2428,-2.2468,-2.2553,-2.2623,-2.2753,-2.282,-2.2903,-2.2917,-2.2948,-2.293,-2.2915,-2.292,-2.2916,-2.2923,-2.295,-2.295,-2.295,-2.295,0,-2.1921,-2.1949,-2.2016,-2.2096,-2.2153,-2.2219,-2.2286,-2.232,-2.2392,-2.2447,-2.2531,-2.2586,-2.2696,-2.278,-2.2871,-2.2921,-2.295,-2.2956,-2.297,-2.2955,-2.2932,-2.2947,-2.2863,-2.2953,-2.2953,-2.2953,-2.2952,-2.2952,-2.1946,-2.1993,-2.2069,-2.2145,-2.2202,-2.2265,-2.2318,-2.2374,-2.2444,-2.2537,-2.257,-2.2657,-2.2738,-2.2862,-2.2914,-2.2986,-2.2987,-2.3005,-2.301,-2.3014,-2.3014,-2.2921,-2.3003,-2.3003,-2.3003,-2.3003,-2.3003,0,-2.1995,-2.2048,-2.2117,-2.221,-2.2271,-2.2292,-2.2369,-2.2419,-2.2495,-2.2567,-2.2636,-2.2736,-2.282,-2.2896,-2.2984,-2.3028,-2.3043,-2.3049,-2.3047,-2.3059,-2.3007,-2.2987,-2.3035,-2.3035,-2.3035,-2.3035,-2.3035,-2.3035,-2.2028,-2.2109,-2.2147,-2.2259,-2.2313,-2.2397,-2.244,-2.25,-2.2558,-2.2666,-2.2736,-2.2785,-2.2861,-2.2956,-2.3036,-2.3057,-2.3089,-2.3091,-2.3115,-2.3066,-2.3061,-2.3058,-2.3039,-2.3097,-2.3097,-2.3161,-2.3162,-2.3162]},{"header":{"parameterUnit":"m.s-1","parameterCategory":1,"la1":30.2991,"la2":30.254,"lo1":-89.0895,"lo2":-89.0444,"dy":0.0017,"dx":0.0017,"nx":28,"ny":28,"refTime":"2023-10-28T21:00:00:Z","depth":0,"parameterNumber":3,"parameterNumberName":"V-component_of_WINDS"},"data":[0,0,0,0,0,0,0,0,0,0,0,0,0,0,0,0,0,0,0,0,0,0,0,0,0,0,0,0,0,0,0,0,0,0,0,0,0,0,0,0,0,0,0,0,0,0,0,0,0,0,0,0,0,0,0,0,0,0,1.4589,1.4588,0,1.4463,1.4462,1.446,1.4483,1.4485,1.4488,1.449,1.4356,1.4351,1.4345,0,0,0,0,0,0,0,0,0,0,0,0,0,1.4848,1.4843,1.4589,1.4588,1.4586,1.4464,1.4462,1.446,1.4483,1.4485,1.4488,1.4491,1.4358,1.4351,1.4344,0,0,0,0,0,0,0,0,0,0,0,0,0,1.473,1.4842,1.459,1.4583,1.4581,1.4464,1.4462,1.446,1.4482,1.4485,1.4489,1.4492,1.436,1.4352,1.4344,1.4224,0,0,1.4318,1.4314,0,0,0,0,0,0,0,0,1.4737,1.4721,1.4585,1.4583,1.4581,1.4492,1.4504,1.438,1.4481,1.4519,1.449,1.4494,1.4398,1.4387,1.4356,1.4218,1.4212,1.4317,1.4312,1.4308,1.4306,0,0,0,0,0,0,0,1.4745,1.4726,1.4539,1.4583,1.4581,1.4586,1.4573,1.4481,1.4441,1.4516,1.4518,1.4503,1.4398,1.4364,1.4353,1.421,1.4317,1.431,1.4304,1.4301,1.3971,1.3967,0,0,0,0,0,0,1.4756,1.4733,1.4543,1.4536,1.4669,1.4578,1.4564,1.4517,1.4443,1.4434,1.45,1.4504,1.4377,1.4363,1.4348,1.4204,1.4308,1.43,1.4295,1.3974,1.397,1.3966,0,0,0,0,0,0,1.4761,1.4739,1.4548,1.4635,1.4611,1.457,1.4518,1.4513,1.4479,1.443,1.4423,1.4473,1.4379,1.436,1.4256,1.42,1.4296,1.4289,1.3979,1.3973,1.3968,1.3914,0,0,0,0,0,0,1.4769,1.474,1.4694,1.4633,1.4606,1.4458,1.4515,1.4508,1.4465,1.4469,1.4403,1.4395,1.438,1.4268,1.4247,1.419,1.4282,1.3983,1.3976,1.397,1.3921,1.3907,1.3896,0,0,0,0,0,1.4778,1.4683,1.4692,1.4669,1.4548,1.4454,1.4439,1.4425,1.446,1.4414,1.4383,1.4397,1.4211,1.4257,1.4234,1.4173,1.3987,1.3978,1.397,1.3926,1.391,1.3896,0,0,0,0,0,0,1.4735,1.4674,1.4684,1.4566,1.4516,1.4458,1.4398,1.4408,1.4345,1.4351,1.4336,1.4321,1.4215,1.4184,1.4237,1.4055,1.4104,1.409,1.4078,1.4062,1.405,1.4058,1.4275,0,0,0,0,0,1.4712,1.4642,1.4593,1.4494,1.4469,1.4438,1.4397,1.4392,1.4338,1.4316,1.4277,1.4224,1.4154,1.4107,1.4039,1.3918,1.3904,1.3865,1.3853,1.3843,1.3831,1.3766,1.3748,1.3939,1.3939,1.3939,0,0,1.4663,1.4622,1.4578,1.4485,1.4445,1.4372,1.442,1.434,1.4286,1.4303,1.4202,1.4173,1.4113,1.4,1.3948,1.3971,1.3776,1.3833,1.3825,1.3818,1.3756,1.3738,1.3722,1.3933,1.3934,1.3935,0,0,1.4537,1.4499,1.4413,1.4374,1.4314,1.4296,1.4276,1.4218,1.4199,1.4099,1.4111,1.4047,1.3926,1.3883,1.3845,1.371,1.372,1.3688,1.3622,1.356,1.3545,1.3531,1.3482,1.3465,1.3677,1.3677,1.3677,0,1.4483,1.4375,1.4367,1.4288,1.4247,1.4263,1.4176,1.4138,1.4058,1.4029,1.4057,1.3908,1.3868,1.3746,1.3714,1.3683,1.366,1.3693,1.3548,1.3534,1.3522,1.3475,1.3456,1.3673,1.3674,1.3674,1.3674,0,1.4312,1.4238,1.4175,1.4101,1.4054,1.3971,1.3951,1.3904,1.3904,1.3883,1.3782,1.3736,1.3661,1.3633,1.3631,1.3511,1.3527,1.3552,1.3599,1.35,1.3456,1.3438,1.3668,1.3669,1.367,1.3671,0,0,1.4149,1.4076,1.4053,1.4021,1.3959,1.3901,1.3821,1.3749,1.3709,1.3656,1.3587,1.3487,1.3511,1.3468,1.3463,1.3408,1.3304,1.344,1.3438,1.3415,1.317,1.315,1.3129,1.3313,1.331,1.3307,1.3175,0,1.4016,1.3874,1.3867,1.3737,1.3669,1.3687,1.3617,1.3571,1.3551,1.349,1.3468,1.3397,1.3434,1.3408,1.3356,1.3328,1.3254,1.3338,1.3248,1.3245,1.3259,1.3106,1.3083,1.296,1.3157,1.3155,1.3152,0,1.3839,1.3783,1.3648,1.3599,1.357,1.3507,1.3443,1.3385,1.3335,1.3325,1.328,1.3284,1.3202,1.3257,1.3144,1.3201,1.3165,1.3147,1.3142,1.3129,1.319,1.3088,1.2921,1.2901,1.3125,1.3127,1.3129,0,1.3733,1.3624,1.3529,1.3501,1.3442,1.3398,1.3371,1.3325,1.3284,1.3228,1.3201,1.3137,1.31,1.305,1.3037,1.3078,1.2925,1.2978,1.2912,1.2913,1.2875,1.2877,1.2698,1.2857,1.2857,1.2858,1.2858,0,1.3582,1.3498,1.3481,1.3422,1.3329,1.3324,1.3232,1.3209,1.3169,1.3106,1.3118,1.3059,1.3047,1.2986,1.2976,1.2884,1.2868,1.2856,1.2854,1.2853,1.2854,1.2826,1.2833,1.2853,1.2854,1.2855,1.2856,0,1.3445,1.343,1.3328,1.3283,1.3269,1.3203,1.3164,1.3108,1.3092,1.3013,1.2994,1.2968,1.2897,1.2881,1.2795,1.2789,1.268,1.2687,1.2697,1.2696,1.2631,1.2637,1.2425,1.2396,1.2577,1.2575,1.2574,0,1.3348,1.3284,1.3234,1.3194,1.3166,1.3101,1.306,1.3054,1.3011,1.2953,1.2904,1.2835,1.2779,1.2665,1.2638,1.2574,1.2579,1.2509,1.2568,1.2571,1.2575,1.2578,1.2572,1.2496,1.2494,1.2493,1.2491,0,1.3178,1.3175,1.3116,1.3056,1.3007,1.2959,1.2913,1.2879,1.2867,1.2819,1.2748,1.2705,1.2621,1.2552,1.2489,1.2461,1.2473,1.2474,1.2455,1.2452,1.2459,1.2453,1.2663,1.2477,1.2479,1.248,1.2481,1.2481,1.3056,1.3001,1.2958,1.2893,1.2859,1.2817,1.2763,1.2742,1.2683,1.2615,1.2616,1.2538,1.2494,1.2411,1.238,1.232,1.2341,1.2314,1.2307,1.2299,1.2293,1.2473,1.2309,1.2309,1.2309,1.231,1.231,0,1.2885,1.286,1.2801,1.2738,1.2687,1.2708,1.2659,1.2615,1.2547,1.2506,1.2452,1.2372,1.2307,1.2277,1.2213,1.2171,1.2175,1.2154,1.2155,1.2149,1.2278,1.23,1.2152,1.2152,1.2152,1.2152,1.2152,1.2152,1.279,1.2699,1.2692,1.2584,1.256,1.2485,1.2455,1.2417,1.2384,1.2294,1.2241,1.2224,1.2188,1.2122,1.2064,1.2058,1.2032,1.2008,1.2004,1.2124,1.214,1.2155,1.2175,1.2003,1.2003,1.1879,1.1878,1.1877]}]]